Regional Weather Roundup
Issued by NWS

Home | Current Version | Previous Version | Graphics & Text | Print | Product List | Glossary On
Versions: 1 2 3 4 5 6 7 8 9 10 11 12 13 14 15 16 17 18 19 20 21 22 23 24 25 26 27
000
ASUS45 KSLC 200210
RWRUT

UTAH REGIONAL WEATHER ROUNDUP
NATIONAL WEATHER SERVICE SALT LAKE CITY UT
700 PM MST SUN NOV 19 2017

UTZ001>011-023>025-200300-

NORTHERN UTAH

CITY           SKY/WX    TMP DP  RH WIND       PRES   REMARKS
BRIGHAM CITY   MOCLDY    32  27  81 CALM      30.12F
HILL AFB       MOCLDY    34  22  61 E14       30.10F WCI  25
LOGAN          PTCLDY    34  24  67 S3        30.11F
OGDEN          MOCLDY    33  26  75 NW5       30.10F WCI  29
SALT LAKE CITY MOCLDY    38  30  73 SE3       30.10F
TOOELE VALLEY  CLOUDY    30  28  93 SW6       30.12S WCI  24
WENDOVER       CLOUDY    34  24  67 W3        30.12F
HEBER CITY       N/A     28  21  74 CALM      30.11F
WEST JORDAN    CLOUDY    33  29  86 S6        30.10F WCI  28

$$

UTZ011>015-024>027-200300-

CENTRAL/NORTHEAST UTAH

CITY           SKY/WX    TMP DP  RH WIND       PRES   REMARKS
PROVO AIRPORT  MOCLDY    32  24  72 S3        30.12F
MOAB/CANYONLAN PTCLDY    31   4  31 CALM      30.20R
DELTA          CLOUDY    34  18  51 CALM      30.12R
PRICE          PTCLDY    28   6  39 NE12      30.20R WCI  18
RICHFIELD      CLEAR     36  28  75 CALM      30.15R
ROOSEVELT      CLOUDY    27  10  50 CALM      30.20R
VERNAL         CLOUDY    23  11  60 W7        30.17R WCI  15

$$

UTZ013>016-019>022-027-200300-

SOUTHERN UTAH

CITY           SKY/WX    TMP DP  RH WIND       PRES   REMARKS
BRYCE CANYON   PTCLDY    23   8  52 SW6       30.20S WCI  16
CEDAR CITY     PTCLDY    42   6  22 S8        30.12R
MILFORD        MOCLDY    35  19  52 NE6       30.10R WCI  30
ST GEORGE      MOCLDY    49   8  19 CALM      30.10R
HANKSVILLE     MOCLDY    32   3  29 NE5       30.24R WCI  27
KANAB          CLEAR     36   7  30 NE6       30.20R WCI  31
BLANDING         N/A     27   4  37 NW9       30.27F WCI  17

$$

REGIONAL REPORTS     COLORADO/ARIZONA

CITY           SKY/WX    TMP DP  RH WIND       PRES   REMARKS
CRAIG, CO      CLOUDY    20  14  77 CALM      30.16R
GRAND JUNCTION CLOUDY    29  13  51 CALM      30.19R
RIFLE, CO      CLOUDY    30  24  78 CALM      30.19S
MONTROSE, CO   CLOUDY    31  20  63 S8        30.21S WCI  23
CORTEZ, CO     CLOUDY    24  13  62 E7        30.21R WCI  16
COLORADO CITY    N/A     37   9  30 SE7       30.17R WCI  32
PAGE, AZ       PTCLDY    41  15  35 S5        30.17F HAZE
GRAND CANYON   CLEAR     26   0  32 CALM      30.20R
KINGMAN, AZ    CLEAR     46   5  18 E8        30.10R
FLAGSTAFF, AZ  PTCLDY    30   3  31 CALM      30.21R

$$

REGIONAL REPORTS    NEVADA/IDAHO/WYOMING

CITY           SKY/WX    TMP DP  RH WIND       PRES   REMARKS
LAS VEGAS, NV  CLOUDY    57  12  17 S3        30.07R
ELY, NY        CLOUDY    36  -1  21 S6        30.11S WCI  31
ELKO, NV       CLOUDY    35  26  69 CALM      30.07F
POCATELLO, ID  CLOUDY    33  27  78 N8        30.06F WCI  26
BURLEY, ID     CLOUDY    39  26  59 SW6       30.02S WCI  35
FORT BRIDGER,    N/A     23  13  66 SW10      30.14S WCI  12
EVANSTON, WY   CLOUDY    29  19  66 S7        30.11F WCI  22
ROCK SPRINGS,  CLOUDY    24  14  65 SW13      30.10S WCI  12

$$




USA.gov is the U.S. government's official web portal to all federal, state and local government web resources and services.